Regional Weather Roundup
Issued by NWS Green Bay, WI

Home | Current Version | Previous Version | Graphics & Text | Print | Product List | Glossary Off
Versions: 1 2 3 4 5 6 7 8 9 10 11 12 13 14 15 16 17 18 19 20 21 22 23 24 25 26 27 28 29 30 31 32 33 34 35 36 37 38 39 40 41 42 43 44 45 46 47 48 49 50

000
ASUS43 KGRB 240800
RWRGRB

NORTH-CENTRAL AND NORTHEAST WISCONSIN REGIONAL WEATHER ROUNDUP
NATIONAL WEATHER SERVICE GREEN BAY WI
300 AM CDT TUE MAY 24 2016

WIZ005-009-010>012-018-019-240900-
NORTH CENTRAL WISCONSIN

CITY           SKY/WX    TMP DP  RH WIND       PRES   REMARKS
IRONWOOD       CLOUDY    59  59 100 SE5       29.80F
MANITOWISH WTR NOT AVBL
ARBOR VITAE    NOT AVBL
EAGLE RIVER    NOT AVBL
LAND O LAKES   NOT AVBL
RHINELANDER    LGT RAIN  61  54  77 W5        29.88S
PHILLIPS       LGT RAIN  63  60  90 S6        29.85S
ANTIGO         NOT AVBL
TOMAHAWK       NOT AVBL
MERRILL        CLOUDY    59  53  78 CALM      29.87F
$$

WIZ013-073-240900-
NORTHEAST WISCONSIN

CITY           SKY/WX    TMP DP  RH WIND       PRES   REMARKS
IRON MOUNTAIN  MOCLDY    61  48  62 SE3       29.85S
MARINETTE      CLEAR     63  45  51 SW6       29.87S
$$

WIZ017-030-035>037-045-240900-
CENTRAL WISCONSIN

CITY           SKY/WX    TMP DP  RH WIND       PRES   REMARKS
MEDFORD        NOT AVBL
WAUSAU         MOCLDY    64  51  62 CALM      29.86S
MOSINEE        NOT AVBL
MARSHFIELD     LGT RAIN  62  56  80 SE3       29.88R
WISC RAPIDS    MOCLDY    60  48  64 CALM      29.89R
STEVENS POINT  NOT AVBL
WAUPACA        CLEAR     55  49  80 CALM      29.89S
SHAWANO        MOCLDY    61  49  65 CALM      29.89S
CLINTONVILLE   NOT AVBL
WAUTOMA        CLEAR     52  49  89 CALM      29.89S
$$

WIZ038-039-048-051-240900-
FOX VALLEY

CITY           SKY/WX    TMP DP  RH WIND       PRES   REMARKS
NWS GREEN BAY  CLEAR     62  42  47 S8        29.89R
APPLETON       NOT AVBL
OSHKOSH        CLEAR     61  44  53 S10       29.89S
FOND DU LAC    CLEAR     61  42  49 S8        29.90S
$$

WIZ022-050-052-240900-
EAST CENTRAL WISCONSIN

CITY           SKY/WX    TMP DP  RH WIND       PRES   REMARKS
EPHRAIM        PTSUNNY   62  38  40 S7        29.87F
STURGEON BAY   NOT AVBL
MANITOWOC      NOT AVBL
SHEBOYGAN      CLEAR     52  42  69 CALM      29.91S
$$

LMZ563-521-522-541>543-240900-
LAKESHORE

STATION/POSITION TIME  TEMP    WIND        PRES    VSBY  WAVE
                       AIR SEA DIR/SP/G                  HT/PER
                 (UTC) (F)     (DEG/KT/KT) (MB)    (MI)  (FT/S)
SHEBOYGAN LKSHOR 0700   57     180/ 14/ 15 1013.3F
KEWAUNEE LKSHORE 0700   53     180/  9/ 10 1011.8F
ALGOMA MARINA    0701          210/ 13/ 14   N/A
NORTHPORT PIER   0700   60     170/  7/ 13 1011.9S
N MID LAKE BUOY  0650   49 44  200/ 10/ 12 1012.0S         2/ 5
SISTER BAY LKSHO 0720   63     180/ 16/ 19   N/A
CHAMBERS ISLAND  0700   64     160/  7/ 14 1011.5F
MENOMINEE LKSHOR 0700   64     170/ 10/ 12 1010.3F
$$



USA.gov is the U.S. government's official web portal to all federal, state and local government web resources and services.